Sun River, MT (59483)

3:50 AM MST on February 07, 2016 (GMT -0700)
Infinity Lofts | | Change Station
CLOSE
Current Station
Personal Weather Station
Location: Sun River, MT
Elevation: 3488 ft
Nearby Weather Stations

Elev 3488 ft 47.55 °N, 111.72 °W | Updated 8 minutes ago

Mostly Cloudy
Mostly Cloudy
27.9 °F
Feels Like 18 °F
N
11.9
Wind Variable Wind from WNW

Today
High -- | Low -- °F
--% Chance of Precip.
Yesterday
High -- | Low -- °F
Precip. -- in
Pressure 30.46 in
Visibility 10.0 miles
Clouds Clear
Windchill 18 °F
Dew Point 14 °F
Humidity 55%
Rainfall 0.00 in
Snow Depth Not available.
7:45 AM 5:37 PM
Waning Crescent, 2% visible
METAR KGTF 070953Z 24010KT 10SM CLR M06/M09 A3032 RMK AO2 SLP314 T10611094
Pressure 30.46 in
Visibility 10.0 miles
Clouds Clear
Windchill 18 °F
Dew Point 14 °F
Humidity 55%
Rainfall 0.00 in
Snow Depth Not available.
7:45 AM 5:37 PM
Waning Crescent, 2% visible
METAR KGTF 070953Z 24010KT 10SM CLR M06/M09 A3032 RMK AO2 SLP314 T10611094

10-Day Weather Forecast

Almanac

Astronomy

Feb. 07, 2016 Rise Set
Actual Time
Civil Twilight
Nautical Twilight
Astronomical Twilight
Moon
Length of Visible Light
Length of Day
Tomorrow will be .
, % of the Moon is Illuminated

Today's Extremes

State Highs State Lows

Community

WunderPhotos

Upload Photos

1,891,171 photos uploaded!

WunderBlog® & News

Nearby

Air Quality

  Air Quality AQ Index Pollutant
Not available.

Snow Depth

Station Depth Elevation

Earthquake Activity

City Distance Mag. Time & Date
Minimum magnitude displayed is 2.5.

Coastal Water Temperatures

Place Temperature

Stations

Nearby Weather Stations

Station Location Temp. Windchill Dew Point Humidity Wind Precip. Elev Updated Type
                   

Watches & Warnings

There are currently no watches in effect.